Phuket, Thailand

5:05 AM ICT on September 27, 2016 (GMT +0700)
Phuket International

Weather History for VTSP - December, 2013

Change the Weather History Date:

Thursday, December 19, 2013

  Actual Average Record
Temperature  
Mean Temperature 82 °F -  
Max Temperature 89 °F 88 °F 93 °F (1997)
Min Temperature 74 °F 75 °F 69 °F (2003)
Cooling Degree Days 16    
Growing Degree Days 32 (Base 50)    
Moisture  
Dew Point 68 °F    
Average Humidity 64    
Maximum Humidity 78    
Minimum Humidity 42    
Precipitation  
Precipitation 0.00 in - - ()
Sea Level Pressure  
Sea Level Pressure 29.82 in    
Wind  
Wind Speed 10 mph ()    
Max Wind Speed 113 mph    
Max Gust Speed -    
Visibility 5.9 miles    
Events      
Averages and records for this station are not official NWS values.
T = Trace of Precipitation, MM = Missing Value Source: Averaged Metar Reports

Daily Weather History Graph

Daily Weather History Graph

Search for Another Location

Airport or City:

Trip Planner

Search our weather history database for the weather conditions in past years. The results will help you decide how hot, cold, wet, or windy it might be!

Date:

Astronomy

Dec. 19, 2013 Rise Set
Actual Time 6:34 AM ICT 6:13 PM ICT
Civil Twilight 6:11 AM ICT 6:36 PM ICT
Nautical Twilight 5:45 AM ICT 7:02 PM ICT
Astronomical Twilight 5:18 AM ICT 7:28 PM ICT
Moon 7:52 PM ICT (12/19) 7:49 AM ICT (12/19)
Length of Visible Light 12h 24m
Length of Day
11h 39m
Full, 97% of the Moon is Illuminated
Dec 19
Full
Dec 25
Last Quarter
Jan 1
New
Jan 8
First Quarter
Jan 16
Full

Hourly Weather History & Observations

Time (ICT) Temp. Heat Index Dew Point Humidity Pressure Visibility Wind Dir Wind Speed Gust Speed Precip Events Conditions
12:00 AM 77.0 °F - 69.8 °F 78% 29.83 in 6.2 mi ENE 8.1 mph - N/A   Scattered Clouds
12:30 AM 77.0 °F - 68.0 °F 74% 29.83 in 6.2 mi ENE 8.1 mph - N/A   Scattered Clouds
1:00 AM 78 °F - 71 °F 74% 29.81 in 6 mi Calm Calm - -   Scattered Clouds
1:00 AM 77.0 °F - 68.0 °F 74% 29.83 in 6.2 mi ENE 6.9 mph - N/A   Scattered Clouds
1:30 AM 77.0 °F - 68.0 °F 74% 29.83 in 6.2 mi East 8.1 mph - N/A   Partly Cloudy
2:00 AM 77.0 °F - 68.0 °F 74% 29.83 in 6.2 mi ENE 11.5 mph - N/A   Partly Cloudy
3:00 AM 77.0 °F - 68.0 °F 74% 29.80 in 6.2 mi ENE 11.5 mph - N/A   Partly Cloudy
3:30 AM 77.0 °F - 68.0 °F 74% 29.80 in 6.2 mi ENE 8.1 mph - N/A   Partly Cloudy
4:00 AM 78 °F - 71 °F 75% 29.77 in 6 mi ENE 5.8 mph - -   Scattered Clouds
4:00 AM 75.2 °F - 68.0 °F 78% 29.80 in 6.2 mi ENE 9.2 mph - N/A   Partly Cloudy
4:30 AM 77.0 °F - 68.0 °F 74% 29.80 in 6.2 mi ENE 9.2 mph - N/A   Partly Cloudy
5:30 AM 75.2 °F - 68.0 °F 78% 29.80 in 6.2 mi ENE 11.5 mph - N/A   Partly Cloudy
6:00 AM 75.2 °F - 68.0 °F 78% 29.80 in 6.2 mi ENE 9.2 mph - N/A   Partly Cloudy
6:30 AM 75.2 °F - 68.0 °F 78% 29.80 in 6.2 mi North 112.8 mph - N/A   Partly Cloudy
7:00 AM 76 °F - 69 °F 74% 29.81 in 6 mi ENE 6.9 mph - -   Scattered Clouds
7:00 AM 75.2 °F - 68.0 °F 78% 29.83 in 6.2 mi ENE 8.1 mph - N/A   Partly Cloudy
7:30 AM 77.0 °F - 68.0 °F 74% 29.83 in 6.2 mi ENE 8.1 mph - N/A   Partly Cloudy
8:00 AM 78.8 °F - 68.0 °F 69% 29.86 in 6.2 mi East 9.2 mph - N/A   Scattered Clouds
8:30 AM 78.8 °F - 68.0 °F 69% 29.86 in 6.2 mi ENE 8.1 mph - N/A   Scattered Clouds
9:00 AM 80.6 °F 83.2 °F 68.0 °F 65% 29.86 in 6.2 mi ENE 8.1 mph - N/A   Scattered Clouds
9:30 AM 82.4 °F 85.4 °F 68.0 °F 62% 29.86 in 6.2 mi East 15.0 mph - N/A   Scattered Clouds
10:00 AM 84 °F - 68 °F 49% 29.85 in 6 mi East 12.7 mph - -   Scattered Clouds
10:00 AM 82.4 °F 84.6 °F 66.2 °F 58% 29.86 in 6.2 mi ENE 13.8 mph - N/A   Scattered Clouds
10:30 AM 84.2 °F 86.6 °F 66.2 °F 55% 29.86 in 6.2 mi ENE 12.7 mph - N/A   Scattered Clouds
11:00 AM 84.2 °F 86.6 °F 66.2 °F 55% 29.86 in 6.2 mi East 12.7 mph - N/A   Scattered Clouds
11:30 AM 86.0 °F 88.2 °F 66.2 °F 51% 29.86 in 6.2 mi ENE 12.7 mph - N/A   Scattered Clouds
12:00 PM 86.0 °F 89.4 °F 68.0 °F 55% 29.83 in 6.2 mi ENE 8.1 mph - N/A   Partly Cloudy
12:30 PM 86.0 °F 89.4 °F 68.0 °F 55% 29.83 in 6.2 mi East 11.5 mph - N/A   Partly Cloudy
1:00 PM 87 °F - 69 °F 47% 29.80 in 6 mi East 9.2 mph - -   Scattered Clouds
1:00 PM 87.8 °F 91.4 °F 68.0 °F 52% 29.83 in 6.2 mi East 13.8 mph - N/A   Partly Cloudy
1:30 PM 87.8 °F 91.4 °F 68.0 °F 52% 29.80 in 6.2 mi East 11.5 mph - N/A   Partly Cloudy
2:00 PM 87.8 °F 91.4 °F 68.0 °F 52% 29.77 in 6.2 mi East 12.7 mph - N/A   Partly Cloudy
2:30 PM 87.8 °F 91.4 °F 68.0 °F 52% 29.74 in 6.2 mi ENE 9.2 mph - N/A   Partly Cloudy
3:00 PM 87.8 °F 91.4 °F 68.0 °F 52% 29.77 in 6.2 mi ENE 9.2 mph - N/A   Partly Cloudy
3:30 PM 87.8 °F 91.4 °F 68.0 °F 52% 29.74 in 6.2 mi East 10.4 mph - N/A   Partly Cloudy
4:00 PM 90 °F - 70 °F 42% 29.73 in 6 mi ENE 8.1 mph - -   Scattered Clouds
4:00 PM 87.8 °F 90.4 °F 66.2 °F 49% 29.74 in 6.2 mi ENE 9.2 mph - N/A   Partly Cloudy
4:30 PM 86.0 °F 88.2 °F 66.2 °F 51% 29.74 in 6.2 mi ENE 9.2 mph - N/A   Partly Cloudy
5:00 PM 86.0 °F 88.2 °F 66.2 °F 51% 29.77 in 6.2 mi ENE 9.2 mph - N/A   Partly Cloudy
5:30 PM 84.2 °F 87.3 °F 68.0 °F 58% 29.77 in 5.6 mi NE 10.4 mph - N/A   Partly Cloudy
6:00 PM 84.2 °F 86.6 °F 66.2 °F 55% 29.77 in 5.6 mi ENE 8.1 mph - N/A   Partly Cloudy
6:30 PM 80.6 °F 83.2 °F 68.0 °F 65% 29.80 in 5.0 mi ENE 3.5 mph - N/A   Scattered Clouds
7:00 PM 82 °F - 70 °F 60% 29.78 in 5 mi East 3.5 mph - -   Mist
7:00 PM 80.6 °F 83.2 °F 68.0 °F 65% 29.83 in 5.0 mi ENE 4.6 mph - N/A   Scattered Clouds
7:30 PM 80.6 °F 82.7 °F 66.2 °F 61% 29.83 in 5.0 mi ENE 5.8 mph - N/A   Scattered Clouds
8:00 PM 80.6 °F 82.7 °F 66.2 °F 61% 29.86 in 5.0 mi ENE 5.8 mph - N/A   Scattered Clouds
8:30 PM 80.6 °F 82.7 °F 66.2 °F 61% 29.86 in 5.0 mi NE 6.9 mph - N/A   Scattered Clouds
9:00 PM 78.8 °F - 66.2 °F 65% 29.86 in 5.0 mi ENE 5.8 mph - N/A   Scattered Clouds
9:30 PM 78.8 °F - 66.2 °F 65% 29.86 in 5.0 mi ENE 10.4 mph - N/A   Scattered Clouds
10:00 PM 79 °F - 70 °F 67% 29.85 in 5 mi ENE 3.5 mph - -   Mist
10:00 PM 78.8 °F - 66.2 °F 65% 29.89 in 5.0 mi ENE 9.2 mph - N/A   Scattered Clouds
10:30 PM 77.0 °F - 66.2 °F 69% 29.89 in 5.0 mi NE 4.6 mph - N/A   Scattered Clouds
11:00 PM 77.0 °F - 68.0 °F 74% 29.89 in 5.0 mi ENE 10.4 mph - N/A   Scattered Clouds
11:30 PM 77.0 °F - 68.0 °F 74% 29.86 in 5.0 mi ENE 12.7 mph - N/A   Scattered Clouds